• în România
  • Lista ţărilor
  • Pe 7 zile
  • Temperatura apei
  • Hartă satelitară
  • Meteo pe hartă
  • Widget-uri
  • user-avatar
    Intrare

    Meteo pe oră la Bregenz

    Astăzi, 16 August, Miercuri

    Timp Temperatura Precipitaţii Vânt Presiune Umiditate
    00:00 +13°C° 1,1 mm 1 m/s 651 mmHg 90%
    01:00 +13°C° 0 mm 1 m/s 651 mmHg 92%
    02:00 +13°C° 1,1 mm 1 m/s 651 mmHg 94%
    03:00 +13°C° 1,1 mm 1 m/s 651 mmHg 95%
    04:00 +13°C° 1,1 mm 1 m/s 651 mmHg 97%
    05:00 +13°C° 0,2 mm 1 m/s 651 mmHg 96%
    06:00 +13°C° 0,2 mm 1 m/s 651 mmHg 95%
    07:00 +14°C° 0 mm 1 m/s 652 mmHg 93%
    08:00 +16°C° 0,2 mm 1 m/s 652 mmHg 85%
    09:00 +18°C° 0,2 mm 1 m/s 652 mmHg 76%
    10:00 +20°C° 0,2 mm 1 m/s 653 mmHg 68%
    11:00 +21°C° 0,1 mm 1 m/s 653 mmHg 64%
    12:00 +22°C° 0,1 mm 1 m/s 653 mmHg 60%
    13:00 +23°C° 0,1 mm 1 m/s 653 mmHg 55%
    14:00 +22°C° 0,2 mm 1 m/s 653 mmHg 57%
    15:00 +22°C° 0,2 mm 1 m/s 652 mmHg 59%
    16:00 +22°C° 0,2 mm 1 m/s 652 mmHg 61%
    17:00 +20°C° 0,4 mm 1 m/s 652 mmHg 70%
    18:00 +19°C° 0,4 mm 1 m/s 652 mmHg 78%
    19:00 +16°C° 0,4 mm 1 m/s 651 mmHg 86%
    20:00 +15°C° 0,1 mm 1 m/s 651 mmHg 88%
    21:00 +14°C° 0,1 mm 1 m/s 651 mmHg 89%
    22:00 +13°C° 0,1 mm 1 m/s 651 mmHg 91%
    23:00 +13°C° 0 mm 1 m/s 651 mmHg 91%

    Mâine, 17 August, Joi

    Timp Temperatura Precipitaţii Vânt Presiune Umiditate
    00:00 +12°C° 0 mm 1 m/s 651 mmHg 91%
    01:00 +12°C° 0 mm 1 m/s 651 mmHg 90%
    02:00 +12°C° 0 mm 1 m/s 650 mmHg 90%
    03:00 +12°C° 0 mm 1 m/s 650 mmHg 89%
    04:00 +11°C° 0 mm 1 m/s 650 mmHg 89%
    05:00 +12°C° 0 mm 1 m/s 650 mmHg 87%
    06:00 +13°C° 0 mm 1 m/s 650 mmHg 85%
    07:00 +14°C° 0 mm 1 m/s 651 mmHg 83%
    08:00 +16°C° 0 mm 1 m/s 651 mmHg 75%
    09:00 +20°C° 0 mm 1 m/s 652 mmHg 66%
    10:00 +22°C° 0 mm 1 m/s 652 mmHg 58%
    11:00 +23°C° 0 mm 1 m/s 652 mmHg 55%
    12:00 +23°C° 0 mm 1 m/s 652 mmHg 53%
    13:00 +24°C° 0 mm 1 m/s 652 mmHg 51%
    14:00 +24°C° 0,1 mm 1 m/s 652 mmHg 53%
    15:00 +24°C° 0,1 mm 1 m/s 652 mmHg 55%
    16:00 +23°C° 0,1 mm 1 m/s 652 mmHg 57%
    17:00 +22°C° 0,1 mm 1 m/s 651 mmHg 65%
    18:00 +20°C° 0,1 mm 1 m/s 651 mmHg 73%
    19:00 +18°C° 0,1 mm 1 m/s 650 mmHg 81%
    20:00 +16°C° 0 mm 1 m/s 650 mmHg 83%
    21:00 +15°C° 0 mm 1 m/s 650 mmHg 86%
    22:00 +14°C° 0 mm 1 m/s 650 mmHg 88%
    23:00 +14°C° 0 mm 1 m/s 650 mmHg 88%

    Poimâine, 18 August, Vineri

    Timp Temperatura Precipitaţii Vânt Presiune Umiditate
    00:00 +14°C° 0 mm 1 m/s 650 mmHg 88%
    01:00 +14°C° 0 mm 1 m/s 650 mmHg 88%
    02:00 +14°C° 0 mm 1 m/s 650 mmHg 88%
    03:00 +14°C° 0 mm 1 m/s 650 mmHg 88%
    04:00 +13°C° 0 mm 1 m/s 649 mmHg 87%
    05:00 +14°C° 0 mm 1 m/s 649 mmHg 86%
    06:00 +15°C° 0 mm 1 m/s 650 mmHg 84%
    07:00 +16°C° 0 mm 1 m/s 650 mmHg 82%
    08:00 +19°C° 0 mm 1 m/s 650 mmHg 75%
    09:00 +21°C° 0 mm 1 m/s 651 mmHg 68%
    10:00 +23°C° 0 mm 1 m/s 651 mmHg 61%
    11:00 +23°C° 0,4 mm 1 m/s 651 mmHg 61%
    12:00 +24°C° 0,4 mm 1 m/s 651 mmHg 61%
    13:00 +24°C° 0,4 mm 1 m/s 650 mmHg 61%
    14:00 +24°C° 0,8 mm 1 m/s 650 mmHg 64%
    15:00 +24°C° 0,8 mm 1 m/s 650 mmHg 67%
    16:00 +24°C° 0,8 mm 1 m/s 650 mmHg 69%
    17:00 +21°C° 1,5 mm 1 m/s 649 mmHg 77%
    18:00 +18°C° 1,5 mm 2 m/s 649 mmHg 84%
    19:00 +16°C° 1,5 mm 2 m/s 649 mmHg 92%
    20:00 +15°C° 4,5 mm 2 m/s 649 mmHg 93%
    21:00 +15°C° 4,5 mm 2 m/s 649 mmHg 95%
    22:00 +13°C° 4,5 mm 3 m/s 649 mmHg 97%
    23:00 +13°C° 6,4 mm 2 m/s 649 mmHg 97%

    19 August, Sâmbătă

    Timp Temperatura Precipitaţii Vânt Presiune Umiditate
    00:00 +12°C° 6,4 mm 2 m/s 649 mmHg 97%
    01:00 +10°C° 6,4 mm 2 m/s 649 mmHg 98%
    02:00 +10°C° 3,5 mm 2 m/s 649 mmHg 98%
    03:00 +10°C° 3,5 mm 1 m/s 648 mmHg 97%
    04:00 +10°C° 3,5 mm 1 m/s 648 mmHg 97%
    05:00 +10°C° 0,8 mm 1 m/s 648 mmHg 97%
    06:00 +10°C° 0,8 mm 1 m/s 649 mmHg 96%
    07:00 +10°C° 0,8 mm 1 m/s 649 mmHg 95%
    08:00 +10°C° 0,2 mm 2 m/s 649 mmHg 93%
    09:00 +12°C° 0,2 mm 2 m/s 649 mmHg 90%
    10:00 +12°C° 0,2 mm 2 m/s 649 mmHg 87%
    11:00 +13°C° 0,2 mm 2 m/s 650 mmHg 83%
    12:00 +14°C° 0,2 mm 2 m/s 650 mmHg 78%
    13:00 +14°C° 0,2 mm 2 m/s 650 mmHg 73%
    14:00 +13°C° 0,4 mm 3 m/s 650 mmHg 74%
    15:00 +13°C° 0,4 mm 3 m/s 650 mmHg 75%
    16:00 +12°C° 0,4 mm 3 m/s 650 mmHg 76%
    17:00 +12°C° 0,5 mm 2 m/s 650 mmHg 82%
    18:00 +10°C° 0,5 mm 2 m/s 650 mmHg 87%
    19:00 +10°C° 0,5 mm 1 m/s 650 mmHg 92%
    20:00 +9°C° 0,1 mm 1 m/s 650 mmHg 92%
    21:00 +9°C° 0,1 mm 1 m/s 651 mmHg 93%
    22:00 +8°C° 0,1 mm 1 m/s 651 mmHg 93%
    23:00 +7°C° 0 mm 1 m/s 651 mmHg 93%

    20 August, Duminică

    Timp Temperatura Precipitaţii Vânt Presiune Umiditate
    00:00 +7°C° 0 mm 1 m/s 651 mmHg 94%
    01:00 +6°C° 0 mm 1 m/s 651 mmHg 94%
    02:00 +6°C° 0 mm 1 m/s 651 mmHg 94%
    03:00 +6°C° 0 mm 1 m/s 651 mmHg 95%
    04:00 +6°C° 0 mm 1 m/s 651 mmHg 95%
    05:00 +6°C° 0 mm 0 m/s 651 mmHg 94%
    06:00 +6°C° 0 mm 0 m/s 651 mmHg 92%
    07:00 +7°C° 0 mm 0 m/s 652 mmHg 91%
    08:00 +10°C° 0 mm 1 m/s 652 mmHg 82%
    09:00 +11°C° 0 mm 1 m/s 653 mmHg 73%
    10:00 +13°C° 0 mm 1 m/s 653 mmHg 64%
    11:00 +14°C° 0 mm 1 m/s 653 mmHg 59%
    12:00 +15°C° 0 mm 2 m/s 653 mmHg 54%
    13:00 +16°C° 0 mm 2 m/s 653 mmHg 49%
    14:00 +16°C° 0 mm 2 m/s 653 mmHg 50%
    15:00 +16°C° 0 mm 2 m/s 653 mmHg 51%
    16:00 +16°C° 0 mm 2 m/s 653 mmHg 51%
    17:00 +14°C° 0 mm 2 m/s 652 mmHg 61%
    18:00 +12°C° 0 mm 1 m/s 652 mmHg 70%
    19:00 +11°C° 0 mm 1 m/s 652 mmHg 79%
    20:00 +10°C° 0 mm 1 m/s 652 mmHg 82%
    21:00 +8°C° 0 mm 1 m/s 651 mmHg 85%
    22:00 +7°C° 0 mm 1 m/s 651 mmHg 88%
    23:00 +7°C° 0 mm 1 m/s 651 mmHg 86%

    21 August, Luni

    Timp Temperatura Precipitaţii Vânt Presiune Umiditate
    00:00 +7°C° 0 mm 1 m/s 651 mmHg 84%
    01:00 +7°C° 0 mm 1 m/s 651 mmHg 82%
    02:00 +6°C° 0 mm 1 m/s 651 mmHg 78%
    03:00 +6°C° 0 mm 1 m/s 650 mmHg 74%
    04:00 +6°C° 0 mm 1 m/s 650 mmHg 70%
    05:00 +7°C° 0 mm 1 m/s 650 mmHg 67%
    06:00 +8°C° 0 mm 1 m/s 651 mmHg 65%
    07:00 +10°C° 0 mm 1 m/s 651 mmHg 62%
    08:00 +12°C° 0 mm 1 m/s 652 mmHg 55%
    09:00 +15°C° 0 mm 1 m/s 652 mmHg 49%
    10:00 +18°C° 0 mm 1 m/s 653 mmHg 42%
    11:00 +19°C° 0 mm 1 m/s 653 mmHg 41%
    12:00 +20°C° 0 mm 1 m/s 652 mmHg 39%
    13:00 +21°C° 0 mm 1 m/s 652 mmHg 38%
    14:00 +21°C° 0 mm 1 m/s 652 mmHg 40%
    15:00 +21°C° 0 mm 1 m/s 652 mmHg 41%
    16:00 +21°C° 0 mm 1 m/s 652 mmHg 43%
    17:00 +19°C° 0 mm 1 m/s 651 mmHg 53%
    18:00 +16°C° 0 mm 1 m/s 651 mmHg 62%
    19:00 +12°C° 0 mm 0 m/s 650 mmHg 72%
    20:00 +12°C° 0 mm 1 m/s 650 mmHg 72%
    21:00 +12°C° 0 mm 1 m/s 650 mmHg 72%
    22:00 +11°C° 0 mm 1 m/s 650 mmHg 72%
    23:00 +11°C° 0 mm 1 m/s 649 mmHg 71%
    Arată mai mult